Location: F?ge?el
(45.8833°N, 22.5833°E)
Time: 12:35:47
(UTC+00:00)

COSMO-SKYMED 1 - Pass Details

Date: 17 November 2025
Orbit: 579 x 581 km, 97.9° (Epoch: 06 December)

Event Time Altitude Azimuth Distance (km) Brightness Sun altitude
Exits shadow 15:44:58 11° 58° (ENE) 1,866 4.4 -8.6°
Maximum altitude 15:47:06 15° 90° (E) 1,621 4.1 -9.0°
Drops below altitude 10° 15:49:24 10° 125° (SE) 1,893 4.7 -9.4°
Sets 15:52:26 0° 150° (SSE) 2,785 5.8 -9.9°
